Regional Weather Roundup
Issued by NWS Goodland, KS

Home | Current Version | Previous Version | Text Only | Print | Product List | Glossary Off
Versions: 1 2 3 4 5 6 7 8 9 10 11 12 13 14 15 16 17 18 19 20 21 22 23 24 25 26 27 28 29 30 31 32 33 34 35 36 37 38 39 40 41 42 43 44 45 46 47 48 49 50

000
ASUS43 KGLD 181708
RWRGLD

GOODLAND FORECAST AREA HOURLY WEATHER ROUNDUP
NATIONAL WEATHER SERVICE GOODLAND KS
1100 AM MDT FRI APR 18 2014

...OFFICIAL OBSERVATIONS...

CITY           SKY/WX    TMP DP  RH WIND       PRES   REMARKS
GOODLAND KS    MOSUNNY   60  39  45 S23G29    30.03F
HILL CITY KS   SUNNY     62  42  47 S20G28    30.13F
IMPERIAL NEB   SUNNY     62  39  42 S17       30.00F
MCCOOK NEB     SUNNY     63  41  44 S20G29    30.06F
AKRON CO       SUNNY     71  25  17 S9        29.98F
BURLINGTON CO  MOSUNNY   63  38  39 SW17G23   30.03F
LIMON CO       SUNNY     65  37  35 SE12      30.03F
$$

...UNOFFICIAL OBSERVATIONS...

CITY           SKY/WX    TMP DP  RH WIND       PRES   REMARKS
COLBY KS       SUNNY     63  43  48 S20G30    30.06F
LENORA KS        N/A     58  32  37 SE21        N/A
LEOTI KS         N/A     59  32  35 S10         N/A
NORTON KS      SUNNY     57  39  51 S20G26    30.09F
OBERLIN KS     FAIR      63  39  42 S22G31    30.06F
SHARON SPRINGS   N/A     61  42  49 S15         N/A
ST FRANCIS KS  MOSUNNY   61  37  41 S15       30.01F
WAKEENEY KS      N/A     61  39  44 MISG        N/A
TRENTON NEB      N/A     62  32  32 S21         N/A
KIT CARSON CO    N/A     58  40  52 MISG        N/A
$$



USA.gov is the U.S. government's official web portal to all federal, state and local government web resources and services.